User: anonymous   Login
Location: Caltech
(34.1382°N, 118.1253°W)
Time: 21:19:23
(UTC-07:00)
Language:

ASTRO E2 - Orbit

View from above orbital plane
View from above orbital plane
View from above satellite
View from above satellite

Ground track
Ground track

The orbit data is extracted from the following two-line orbital elements,

1 28773U 05025A   16243.65698307  .00001555  00000-0  76781-4 0  9998
2 28773  31.3837  19.3873 0004984 313.2310  46.7920 15.14983812613249
Epoch (UTC): 30 August 2016 15:46:03
Eccentricity: 0.0004984
inclination: 31.3837°
perigee height: 517 km
apogee height: 524 km
right ascension of ascending node: 19.3873°
argument of perigee: 313.2310°
revolutions per day: 15.14983812
mean anomaly at epoch: 46.7920°
orbit number at epoch: 61324

The dashed part of the orbit path shows where the satellite is in the earth's shadow,  

DLR